TimeHST,TemperatureF,Dew PointF,Humidity,Sea Level PressureIn,VisibilityMPH,Wind Direction,Wind SpeedMPH,Gust SpeedMPH,PrecipitationIn,Events,Conditions,WindDirDegrees,DateUTC
12:53 AM,68.0,57.0,68,30.00,10.0,SW,8.1,-,N/A,,Scattered Clouds,230,2012-11-02 10:53:00
1:53 AM,66.9,57.0,70,29.98,10.0,WSW,8.1,-,N/A,,Partly Cloudy,240,2012-11-02 11:53:00
2:53 AM,66.0,57.0,73,29.97,10.0,SW,8.1,-,N/A,,Scattered Clouds,230,2012-11-02 12:53:00
3:53 AM,68.0,55.0,63,29.97,10.0,SW,6.9,-,N/A,,Mostly Cloudy,230,2012-11-02 13:53:00
4:53 AM,68.0,55.0,63,29.96,10.0,SW,5.8,-,N/A,,Mostly Cloudy,230,2012-11-02 14:53:00
5:53 AM,66.0,53.1,63,29.96,10.0,SW,8.1,-,N/A,,Partly Cloudy,230,2012-11-02 15:53:00
6:53 AM,66.0,55.0,68,29.98,10.0,SW,8.1,-,N/A,,Scattered Clouds,230,2012-11-02 16:53:00
7:53 AM,69.1,55.0,61,29.99,10.0,SW,6.9,-,N/A,,Scattered Clouds,220,2012-11-02 17:53:00
8:53 AM,73.0,60.1,64,30.00,10.0,South,4.6,-,N/A,,Mostly Cloudy,190,2012-11-02 18:53:00
9:53 AM,79.0,57.9,48,30.00,10.0,WSW,3.5,-,N/A,,Scattered Clouds,240,2012-11-02 19:53:00
10:53 AM,79.0,60.1,52,29.97,10.0,Calm,Calm,-,N/A,,Scattered Clouds,0,2012-11-02 20:53:00
11:53 AM,82.9,60.1,46,29.95,10.0,SE,8.1,-,N/A,,Scattered Clouds,140,2012-11-02 21:53:00
12:53 PM,82.0,63.0,52,29.92,10.0,East,11.5,-,N/A,,Scattered Clouds,90,2012-11-02 22:53:00
1:53 PM,82.9,64.0,53,29.89,10.0,East,11.5,-,N/A,,Scattered Clouds,100,2012-11-02 23:53:00
2:53 PM,81.0,62.1,52,29.89,10.0,ESE,13.8,-,N/A,,Scattered Clouds,110,2012-11-03 00:53:00
3:53 PM,79.0,64.0,60,29.89,10.0,ESE,12.7,-,N/A,,Scattered Clouds,120,2012-11-03 01:53:00
4:53 PM,75.9,66.0,71,29.91,10.0,SE,9.2,-,N/A,,Mostly Cloudy,130,2012-11-03 02:53:00
5:53 PM,73.9,66.0,76,29.92,10.0,SE,10.4,-,N/A,,Mostly Cloudy,130,2012-11-03 03:53:00
6:53 PM,72.0,66.0,81,29.95,10.0,South,5.8,-,N/A,,Scattered Clouds,190,2012-11-03 04:53:00
7:53 PM,73.0,66.0,79,29.97,10.0,South,5.8,-,N/A,,Overcast,180,2012-11-03 05:53:00
8:53 PM,73.0,66.0,79,29.99,10.0,SSW,4.6,-,N/A,,Overcast,210,2012-11-03 06:53:00
9:53 PM,73.0,64.9,76,29.99,10.0,SW,3.5,-,N/A,,Overcast,230,2012-11-03 07:53:00
10:53 PM,71.1,64.0,78,30.00,10.0,WSW,4.6,-,N/A,,Mostly Cloudy,240,2012-11-03 08:53:00
11:53 PM,69.1,63.0,81,29.99,10.0,SW,3.5,-,N/A,,Scattered Clouds,230,2012-11-03 09:53:00